Flag for France Weather past 2 weeks in Bordeaux, France

Now
66 °F

Clear.


Feels Like: 66 °F
Forecast: 54 / 66 °F
Wind: 7 mph from East

Location: Bordeaux / Merignac

Current Time: May 4, 2015 at 11:13:55 PM

Latest Report: May 4, 2015 at 10:30 PM


Visibility: N/A

Pressure: 29.47 "Hg

Humidity: 78%

Dew point: 59 °F

Location of BordeauxLocation

Historic Weather in Bordeaux — Graph

°F

Bordeaux temperature yesterday

Maximum temperature yesterday: 73 °F (at 4:00 PM)
Minimum temperature yesterday: 61 °F (at 12:00 AM)
Average temperature yesterday: 66 °F

Past Weeks' High & Low Weather Summary

 TemperatureHumidityPressure
High77 °F (Apr 21, 4:30 PM)100% (Apr 20, 4:30 AM)30.27 "Hg (Apr 20, 4:30 AM)
Low43 °F (Apr 29, 5:00 AM)22% (Apr 21, 5:30 PM)29.47 "Hg (May 4, 5:00 PM)
Average60 °F74%29.96 "Hg
* Reported Apr 19 10:00 PM — May 4 10:00 PM, Bordeaux, Weather by CustomWeather, © 2015

Note: Actual official high and low records may vary slightly from our data, if they occured in-between our weather recording intervals... More about our weather records

Advertising

Bordeaux weather history for previous 24 hours

 ConditionsComfort  
Time TempWeatherWind HumidityBarometerVisibility
10:00 PM
Mon, May 4
68 °FClear.9 mph73%29.47 "HgN/A
9:30 PM70 °FClear.9 mph73%29.47 "HgN/A
9:00 PM72 °FMild.8 mph69%29.47 "HgN/A
8:30 PM72 °FClear.10 mph69%29.47 "HgN/A
8:00 PM73 °FClear.9 mph69%29.47 "HgN/A
7:30 PM75 °FClear.7 mph65%29.50 "HgN/A
7:00 PM75 °FMild.9 mph65%29.50 "HgN/A
6:30 PM75 °FClear.12 mph65%29.50 "HgN/A
6:00 PM75 °FClear.10 mph65%29.50 "HgN/A
5:30 PM73 °FClear.15 mph69%29.50 "HgN/A
5:00 PM73 °FClear.14 mph69%29.47 "HgN/A
4:30 PM72 °FLight rain. Broken clouds.10 mph78%29.50 "HgN/A
4:00 PM72 °FLight rain. Partly sunny.8 mph78%29.53 "HgN/A
3:30 PM72 °FMild.10 mph73%29.56 "HgN/A
3:00 PM72 °FPartly sunny.16 mph73%29.56 "HgN/A
2:30 PM75 °FClear.15 mph61%29.56 "HgN/A
2:00 PM75 °FClear.16 mph69%29.56 "HgN/A
1:30 PM73 °FClear.13 mph74%29.59 "HgN/A
1:00 PM70 °FClear.14 mph78%29.59 "HgN/A
12:30 PM70 °FPartly sunny.13 mph83%29.62 "HgN/A
12:00 PM68 °FClear.12 mph83%29.62 "HgN/A
11:30 AM66 °FPartly sunny.9 mph88%29.65 "HgN/A
11:00 AM66 °FMostly cloudy.9 mph88%29.68 "HgN/A
10:30 AM64 °FMostly cloudy.10 mph94%29.68 "HgN/A
10:00 AM64 °FClear.9 mph94%29.68 "HgN/A
9:30 AM63 °FMostly cloudy.8 mph94%29.71 "HgN/A
9:00 AM63 °FMostly cloudy.8 mph94%29.71 "HgN/A
8:30 AM61 °FLow clouds.9 mph100%29.71 "HgN/A
8:00 AM61 °FMostly cloudy.9 mph94%29.71 "HgN/A
7:30 AM61 °FPartly cloudy.7 mph94%29.74 "HgN/A
7:00 AM61 °FOvercast.7 mph94%29.74 "HgN/A
6:30 AM61 °FMostly cloudy.7 mph94%29.74 "HgN/A
6:00 AM59 °FPartly cloudy.6 mph100%29.74 "HgN/A
5:30 AM59 °FPassing clouds.5 mph94%29.77 "HgN/A
5:00 AM59 °FOvercast.5 mph94%29.77 "HgN/A
4:30 AM59 °FPassing clouds.3 mph94%29.80 "HgN/A
4:00 AM59 °FMostly cloudy.3 mph94%29.80 "HgN/A
3:30 AM59 °FDrizzle. Low clouds.2 mph94%29.80 "HgN/A
3:00 AM59 °FMostly cloudy.1 mph94%29.83 "HgN/A
2:30 AM59 °FPartly cloudy.No wind88%29.83 "HgN/A
2:00 AM61 °FPassing clouds.1 mph88%29.86 "HgN/A
1:30 AM61 °FMostly cloudy.No wind83%29.86 "HgN/A
1:00 AM61 °FOvercast.No wind77%29.86 "HgN/A
12:30 AM61 °FLight rain. Overcast.3 mph88%29.86 "HgN/A
12:00 AM63 °FLight rain. Mostly cloudy.2 mph88%29.86 "HgN/A
11:30 PM
Sun, May 3
63 °FLight rain. Mostly cloudy.3 mph88%29.86 "HgN/A
Weather by CustomWeather, © 2015

See weather overviewHow to use our weather pages